Regional Weather Roundup
Issued by NWS Green Bay, WI

Home | Current Version | Previous Version | Text Only | Print | Product List | Glossary On
Versions: 1 2 3 4 5 6 7 8 9 10 11 12 13 14 15 16 17 18 19 20 21 22 23 24 25 26 27 28 29 30 31 32 33 34 35 36 37 38 39 40 41 42 43 44 45 46 47 48 49 50
000
ASUS43 KGRB 301159
RWRGRB

NORTH-CENTRAL AND NORTHEAST WISCONSIN REGIONAL WEATHER ROUNDUP
NATIONAL WEATHER SERVICE GREEN BAY WI
700 AM CDT SAT AUG 30 2014

WIZ005-009-010>012-018-019-301300-
NORTH CENTRAL WISCONSIN

CITY           SKY/WX    TMP DP  RH WIND       PRES   REMARKS
IRONWOOD       NOT AVBL
MANITOWISH WTR NOT AVBL
ARBOR VITAE    NOT AVBL
EAGLE RIVER    NOT AVBL
LAND O LAKES   NOT AVBL
RHINELANDER    LGT RAIN  63  62  97 NW3       29.79R FOG
PHILLIPS       NOT AVBL
ANTIGO         NOT AVBL
TOMAHAWK       NOT AVBL
MERRILL        NOT AVBL
$$

WIZ013-073-301300-
NORTHEAST WISCONSIN

CITY           SKY/WX    TMP DP  RH WIND       PRES   REMARKS
IRON MOUNTAIN  LGT RAIN  64  63  96 CALM      29.76R
MARINETTE      CLOUDY    66  63  88 SE5       29.74F
$$

WIZ017-030-035>037-045-301300-
CENTRAL WISCONSIN

CITY           SKY/WX    TMP DP  RH WIND       PRES   REMARKS
MEDFORD        NOT AVBL
WAUSAU         CLOUDY    65  64  97 N3        29.75S
MOSINEE        NOT AVBL
MARSHFIELD     MOCLDY    65  64  97 NW3       29.77R
WISC RAPIDS    CLOUDY    66  66 100 NW7       29.76R
STEVENS POINT  NOT AVBL
WAUPACA        NOT AVBL
SHAWANO        CLOUDY    68  66  94 CALM      29.75S
CLINTONVILLE   NOT AVBL
$$

WIZ038-039-048-051-301300-
FOX VALLEY

CITY           SKY/WX    TMP DP  RH WIND       PRES   REMARKS
NWS GREEN BAY  CLOUDY    68  67  96 CALM      29.75S
APPLETON       MOCLDY    70  68  94 S8        29.76R
OSHKOSH        PTCLDY    70  68  93 S9        29.75S FOG
FOND DU LAC    PTCLDY    70  67  90 S13       29.77R
$$

WIZ022-050-052-301300-
EAST CENTRAL WISCONSIN

CITY           SKY/WX    TMP DP  RH WIND       PRES   REMARKS
STURGEON BAY   CLOUDY    66  64  94 CALM      29.76F
MANITOWOC      NOT AVBL
SHEBOYGAN      PTCLDY    70  67  90 SW8       29.78R
$$

LMZ563-521-522-541>543-301300-
LAKESHORE

STATION/POSITION TIME  TEMP    WIND        PRES    VSBY  WAVE
                       AIR SEA DIR/SP/G                  HT/PER
                 (UTC) (F)     (DEG/KT/KT) (MB)    (MI)  (FT/S)
SHEBOYGAN LKSHOR 1100   69 58  180/ 15/ 15 1008.1F
KEWAUNEE LKSHORE 1100   64     170/  5/  5 1006.9F
ALGOMA MARINA    1100             CALM       N/A
NORTHPORT PIER   1100   67     150/  2/  2 1007.5F
N MID LAKE BUOY  1100   67 65  180/  8/ 10 1008.1F         3/ 6
S GREEN BAY BUOY 1100   69     VRB  8/ 10  1008.4F
CHAMBERS ISLAND  1100   68      60/  4/  5 1007.8F
MENOMINEE LKSHOR 1100   68      80/  5/  6 1008.3F
$$


USA.gov is the U.S. government's official web portal to all federal, state and local government web resources and services.